Home   Weather   Freiberg   Past weeks

Flag for Germany Past Weather in Freiberg, Saxony, Germany — Yesterday and Last 2 Weeks

46 °F

Partly sunny.

Feels Like: 46 °F
Forecast: 41 / 50 °F
Wind: 2 mph from North

Location: Dresden-Klotzsche

Current Time: Oct 26, 2016 at 3:31:08 PM

Latest Report: Oct 26, 2016 at 2:50 PM

Visibility: 4 mi

Pressure: 30.36 "Hg

Humidity: 93%

Dew Point: 45 °F

Location of FreibergLocation

Past Weather in Freiberg — Graph


Freiberg Temperature Yesterday

Maximum temperature yesterday: 50 °F (at 12:20 AM)
Minimum temperature yesterday: 48 °F (at 6:20 AM)
Average temperature yesterday: 49 °F

High & Low Weather Summary for the Past Weeks

High63 °F (Oct 16, 2:50 PM)100% (Oct 11, 10:50 PM)30.39 "Hg (Oct 11, 10:50 PM)
Low36 °F (Oct 23, 5:20 AM)64% (Oct 16, 2:50 PM)29.80 "Hg (Oct 15, 1:20 AM)
Average47 °F90%30.05 "Hg
* Reported Oct 11 2:20 PM — Oct 26 2:20 PM, Freiberg, Weather by CustomWeather, © 2016

Note: Actual official high and low records may vary slightly from our data, if they occured in-between our weather recording intervals... More about our weather records


Freiberg Weather History for the Previous 24 Hours

Scroll right to see more
Time TempWeatherWind HumidityBarometerVisibility
2:20 PM
Wed, Oct 26
46 °FPartly sunny.2 mph87%30.36 "Hg4 mi
1:50 PM46 °FPartly sunny.3 mph87%30.39 "Hg4 mi
1:20 PM46 °FFog.5 mph93%30.39 "Hg3 mi
12:50 PM46 °FFog.2 mph93%30.39 "Hg2 mi
12:20 PM45 °FFog.5 mph100%30.39 "Hg2 mi
11:50 AM45 °FFog.7 mph100%30.39 "Hg1 mi
11:20 AM45 °FFog.5 mph100%30.39 "Hg1 mi
10:50 AM45 °FFog.5 mph100%30.39 "Hg1 mi
10:20 AM45 °FFog.3 mph100%30.39 "Hg1 mi
9:50 AM45 °FFog.3 mph100%30.36 "Hg1 mi
9:20 AM45 °FFog.5 mph100%30.36 "Hg1 mi
8:50 AM45 °FFog.5 mph100%30.36 "Hg1 mi
8:20 AM45 °FFog.5 mph100%30.36 "Hg0 mi
7:50 AM45 °FFog.6 mph100%30.36 "Hg1 mi
7:20 AM45 °FFog.6 mph100%30.33 "Hg1 mi
6:50 AM45 °FFog.5 mph100%30.33 "Hg1 mi
6:20 AM45 °FFog.5 mph100%30.33 "Hg1 mi
5:50 AM45 °FFog.6 mph100%30.33 "Hg1 mi
5:20 AM45 °FFog.3 mph100%30.33 "Hg1 mi
4:50 AM45 °FFog.5 mph100%30.33 "Hg1 mi
4:20 AM45 °FFog.5 mph100%30.30 "Hg1 mi
3:50 AM46 °FFog.5 mph93%30.30 "Hg1 mi
3:20 AM45 °FDrizzle. Fog.2 mph100%30.30 "Hg1 mi
2:50 AM45 °FDrizzle. Fog.6 mph100%30.30 "Hg1 mi
2:20 AM45 °FDrizzle. Fog.6 mph100%30.30 "Hg1 mi
1:50 AM45 °FDrizzle. Fog.6 mph100%30.30 "Hg1 mi
1:20 AM46 °FDrizzle. Fog.6 mph100%30.27 "Hg2 mi
12:50 AM45 °FDrizzle. Fog.6 mph100%30.27 "Hg1 mi
12:20 AM46 °FDrizzle. Fog.8 mph100%30.27 "Hg1 mi
11:50 PM
Tue, Oct 25
48 °FDrizzle. Fog.10 mph100%30.27 "Hg1 mi
11:20 PM48 °FDrizzle. Fog.3 mph100%30.27 "Hg0 mi
10:50 PM48 °FDrizzle. Fog.2 mph100%30.27 "Hg0 mi
10:20 PM48 °FDrizzle. Fog.3 mph100%30.27 "Hg0 mi
9:50 PM48 °FDrizzle. Fog.3 mph100%30.27 "Hg1 mi
9:20 PM48 °FFog.5 mph100%30.24 "Hg2 mi
8:50 PM48 °FFog.2 mph100%30.24 "Hg1 mi
8:20 PM48 °FDrizzle. Fog.3 mph100%30.24 "Hg1 mi
7:50 PM48 °FDrizzle. Fog.3 mph100%30.24 "Hg1 mi
7:20 PM50 °FFog.3 mph94%30.21 "Hg2 mi
6:50 PM50 °FFog.3 mph94%30.21 "Hg2 mi
6:20 PM50 °FDrizzle. Fog.3 mph94%30.21 "Hg3 mi
5:50 PM50 °FFog.5 mph94%30.18 "Hg3 mi
5:20 PM50 °FBroken clouds.3 mph94%30.18 "Hg4 mi
4:50 PM50 °FPartly sunny.3 mph94%30.18 "Hg4 mi
4:20 PM50 °FPartly sunny.6 mph94%30.18 "Hg5 mi
3:50 PM50 °FPartly sunny.5 mph94%30.18 "Hg5 mi
3:20 PM50 °FPartly sunny.5 mph94%30.18 "Hg5 mi
Weather by CustomWeather, © 2016

See weather overviewHow to use our weather pages